Track ONEWEB-0299 now! 10-day predictions ONEWEB-0299 is classified as:
1 49088U 21075P 22146.46300436 .00000187 00000-0 44738-3 0 9990 2 49088 87.9049 300.5181 0002059 99.9345 260.2019 13.17648611 39315